Vertical_Velocity
2 -3 5 3 7 -2 -4 2 1 -1 -1 -5 -1 2 4 2 1 0 -1 -4 1 -4 3 -1 -1 -1 1 -1 -0 1 0 1 1 -2 -3 -2 0 2 -1 0 1 -0 0
2 4 0 0 -1 -0 3 1 1 4 -0 1 3 -0 -2 -6 2 -1 -2 -0 -2 -2 1 -0 -1 1 -2 -2 -1 1 0 0 5 -0 -3 0 -1 1 -0 -1 5 -2 1
2 2 0 4 7 7 7 6 0 -2 1 -4 3 -5 -4 2 -2 -0 0 -1 -2 -0 1 1 -0 -1 -3 -0 -0 -1 -2 -1 -1 7 -3 -1 1 -1 7 5 1 8 4
-0 1 -1 4 2 3 0 2 0 -0 -1 -1 -1 0 1 1 2 -1 -2 1 -1 1 1 0 0 -2 -2 -2 0 2 -1 -1 2 -1 -3 -1 1 -1 -0 -1 1 1 -1
-3 -1 1 -1 -0 -1 -1 -0 -1 1 0 -0 -1 -0 -0 -1 2 -3 -3 -3 -0 -2 -2 -0 -0 -2 -3 0 -2 2 0 -1 0 2 -1 -0 5 -3 0 -1 -1 3 1
-0 0 -1 0 -0 -2 0 -1 -0 1 -2 -2 -2 0 -2 -2 -2 -5 -4 -0 -0 -2 0 0 -1 -2 -2 -1 -0 -2 2 -1 7 5 0 0 2 0 -0 -0 1 -0 5
1 -4 -1 -1 2 -2 -2 -2 -2 -3 -4 -2 1 -1 -0 -2 -1 -1 -1 -2 -1 1 -0 0 0 -2 -0 0 -2 -1 0 -1 -2 -2 11 4 1 0 -0 -2 -1 1 -0
-2 -1 -3 0 -3 -1 -2 -1 -2 -1 -0 1 1 1 -1 0 -0 1 -1 -1 -0 -2 1 1 1 -0 1 -1 -2 -2 1 -1 2 16 -1 3 -0 -1 -0 1 -1 -2 3
-1 -0 -3 -3 -1 -2 -2 -2 0 0 0 1 0 -1 -0 -0 -1 -2 -2 -2 -2 0 -2 -1 0 -1 0 -2 -1 -2 -2 -1 0 -2 -1 -1 -2 -0 -2 1 1 -2 1
-3 -2 -1 -1 1 -2 -1 -1 -0 0 -0 0 -1 -1 1 0 0 -2 -1 1 -2 0 -1 -1 -0 -0 1 1 -0 -1 -2 0 0 -1 -3 1 0 -1 -0 0 -1 1 -1
-2 -1 -0 -0 3 2 0 -1 -1 -1 -1 -2 -0 -1 -0 -1 -1 -1 -2 -2 -1 0 0 0 1 -1 0 0 -1 1 1 -1 -0 -0 0 -0 -1 1 1 -1 -0 -0 -0
-2 -1 -2 -1 -1 -3 -2 -0 -1 -1 -1 -1 -0 -1 -2 -3 -2 -1 -2 -1 -0 1 1 -2 -1 1 -1 -1 -3 -0 1 1 -1 1 -1 1 -0 1 1 -0 -1 0 -0
1 -2 -2 -2 -2 -2 -2 -1 -1 -1 0 1 1 -1 -1 -1 -1 -2 -2 -3 -2 -1 1 -0 -1 -2 0 -0 -2 -2 -2 -1 1 1 -3 1 1 -0 1 9 -0 -1 0
-0 -0 -0 -2 -2 -2 0 -2 -1 -0 -0 1 1 0 -1 -2 -0 0 1 1 1 0 -1 -1 1 2 1 -0 2 2 1 1 -0 -1 -3 0 -1 2 0 3 9 -0 0
-1 -1 -2 -2 -1 -1 1 -1 -1 -0 -0 -0 -0 -2 -3 -0 6 1 0 1 0 1 -2 1 -2 -2 1 -0 1 -0 -0 -1 -0 -1 -1 2 1 -0 2 3 5 1 -1
-2 -3 -2 -1 -1 -1 -1 -1 -0 -0 0 -0 -0 -1 -3 0 7 2 1 -1 2 0 -1 1 -1 -0 1 2 1 1 1 1 1 1 -1 -3 1 1 -0 6 -1 0 -0
-0 -1 -1 -2 -2 -1 -1 -1 -2 -1 -1 -0 -0 -1 -2 -0 -3 1 -1 0 1 3 -1 -0 -0 -0 1 0 -1 -1 0 1 1 -0 -0 -0 -2 -0 3 -1 2 2 1
-3 1 -1 -1 -1 -2 0 1 1 -0 -0 0 -1 -0 -1 0 0 0 -2 -0 -1 1 1 2 -1 0 -2 1 -0 0 1 1 -2 1 3 -0 -1 -1 1 2 2 1 -0
1 -3 -2 -1 -0 -1 -1 -1 -0 -0 2 6 1 -1 -1 1 -1 -1 1 -0 2 -1 4 4 0 2 -1 1 -1 -1 -1 0 5 -5 -2 -4 -3 -4 -4 -4 1 7 2
-1 -1 -2 -2 -2 0 2 3 -1 2 -0 0 -0 3 2 1 1 2 0 -1 -1 1 -3 -0 1 -0 3 1 -2 0 -0 -1 0 0 -2 3 -1 1 4 3 -3 -10 -2
-2 -2 -2 -1 1 -1 1 1 1 -1 -2 -2 -2 3 1 -1 -1 -2 -2 1 -1 -1 1 -0 -1 -2 -0 0 2 -2 -2 -1 -3 -1 4 1 -3 2 2 1 -2 4 2
1 -1 -2 -1 -2 -1 -1 -0 -2 2 -1 -1 1 2 1 2 2 -0 -0 -1 -0 -1 1 -0 -0 0 -1 -1 -1 -1 3 -6 -1 -2 -0 -2 1 3 0 -2 -1 -1 -4
-2 -2 -2 -1 -1 1 -3 -2 -1 6 2 -1 2 -2 0 -1 -1 -1 -1 -1 -0 -1 -2 -1 -2 -1 -2 -3 -2 1 2 5 -0 -2 -2 -0 1 1 2 2 1 1 2
0 -2 -2 -1 -2 -2 -0 -1 -1 -1 -1 -0 -3 -3 -3 -1 -1 -1 -1 0 -1 -1 -1 -0 -1 -2 0 1 -2 -2 -1 1 -0 4 -2 -2 -3 -3 -6 -6 1 -2 -3
1 -1 -0 -1 -2 -2 -2 -2 -2 -2 -2 -2 -2 -3 -2 -2 -2 -1 -0 -1 -2 -2 -1 -2 -2 -1 -1 -2 -1 0 -1 1 -0 -1 2 3 1 1 3 4 -4 2 -0
-2 -4 -2 -2 -2 -2 -2 -4 -3 -3 -4 -3 0 1 -0 1 -0 -1 -0 2 1 -0 2 2 1 -3 -1 -1 4 2 1 -1 0 0 -2 -3 -1 -2 -8 -6 -2 -2 2
Height
3181 3182 3183 3185 3188 3189 3192 3195 3198 3200 3202 3205 3207 3208 3210 3212 3213 3214 3215 3216 3216 3216 3216 3216 3215 3214 3213 3213 3211 3210 3209 3209 3208 3207 3205 3203 3203 3201 3200 3198 3198 3199 3199
3183 3185 3187 3189 3191 3193 3196 3198 3201 3203 3205 3206 3208 3210 3213 3215 3216 3216 3217 3217 3217 3217 3218 3216 3215 3215 3214 3213 3212 3211 3210 3210 3209 3208 3206 3205 3203 3202 3201 3200 3200 3200 3201
3188 3190 3191 3192 3195 3197 3199 3201 3202 3205 3207 3209 3211 3213 3215 3216 3217 3218 3218 3218 3219 3219 3219 3217 3216 3216 3215 3214 3213 3212 3211 3210 3209 3209 3207 3206 3205 3204 3202 3201 3202 3202 3202
3191 3193 3195 3197 3199 3200 3202 3204 3206 3207 3210 3211 3213 3215 3217 3218 3219 3220 3220 3220 3220 3220 3219 3218 3218 3217 3216 3214 3213 3213 3211 3211 3211 3210 3209 3207 3207 3206 3204 3204 3203 3204 3205
3194 3196 3198 3200 3201 3203 3205 3207 3208 3210 3212 3214 3215 3217 3219 3220 3221 3221 3222 3221 3221 3220 3220 3219 3218 3217 3217 3215 3214 3213 3213 3212 3211 3211 3210 3209 3210 3207 3206 3206 3206 3206 3207
3196 3198 3200 3202 3203 3205 3207 3209 3210 3212 3214 3216 3218 3219 3221 3222 3223 3223 3223 3222 3222 3221 3221 3220 3219 3217 3218 3217 3216 3215 3214 3214 3213 3212 3211 3210 3210 3209 3208 3208 3208 3208 3208
3199 3201 3202 3204 3206 3208 3210 3211 3213 3215 3217 3218 3220 3222 3223 3224 3224 3224 3224 3223 3221 3221 3220 3220 3219 3219 3218 3218 3216 3216 3215 3214 3214 3214 3213 3212 3211 3210 3210 3209 3209 3209 3209
3202 3204 3205 3207 3209 3210 3212 3215 3216 3218 3219 3220 3222 3223 3224 3224 3224 3224 3223 3222 3221 3221 3221 3221 3219 3220 3219 3219 3218 3217 3216 3215 3214 3214 3214 3214 3213 3211 3210 3210 3210 3210 3210
3203 3206 3208 3210 3211 3213 3214 3216 3217 3219 3220 3221 3223 3224 3224 3224 3224 3224 3223 3223 3222 3223 3221 3221 3220 3220 3220 3220 3219 3218 3217 3217 3215 3214 3214 3214 3213 3213 3211 3211 3210 3211 3211
3205 3207 3209 3210 3212 3214 3215 3216 3218 3219 3221 3222 3223 3224 3224 3224 3225 3224 3223 3223 3224 3223 3222 3222 3221 3221 3220 3221 3220 3219 3218 3217 3215 3214 3214 3213 3213 3213 3213 3212 3211 3211 3211
3206 3208 3210 3212 3213 3215 3216 3218 3219 3221 3222 3223 3224 3225 3225 3225 3225 3225 3224 3224 3225 3224 3223 3222 3221 3220 3220 3220 3220 3219 3218 3217 3216 3215 3213 3212 3212 3213 3213 3213 3212 3212 3212
3207 3209 3210 3212 3214 3215 3216 3218 3219 3221 3222 3223 3224 3225 3225 3225 3225 3225 3225 3225 3225 3224 3223 3222 3221 3220 3219 3218 3217 3217 3217 3217 3216 3214 3213 3212 3212 3212 3212 3213 3213 3212 3212
3208 3209 3211 3213 3214 3215 3216 3218 3219 3220 3222 3223 3224 3224 3225 3224 3225 3225 3225 3225 3224 3224 3223 3221 3220 3220 3219 3217 3216 3215 3214 3214 3214 3213 3211 3210 3210 3210 3210 3212 3212 3212 3212
3208 3210 3211 3212 3213 3214 3216 3217 3218 3220 3221 3222 3223 3224 3224 3224 3224 3224 3224 3223 3223 3222 3222 3221 3219 3218 3217 3216 3215 3213 3211 3210 3210 3209 3208 3208 3208 3208 3208 3210 3210 3211 3211
3208 3209 3210 3212 3213 3215 3216 3217 3218 3219 3220 3221 3222 3223 3223 3223 3223 3223 3223 3222 3222 3221 3219 3218 3217 3216 3214 3212 3211 3210 3208 3206 3205 3205 3205 3206 3206 3207 3207 3208 3209 3210 3210
3206 3208 3209 3211 3212 3213 3215 3215 3216 3217 3219 3220 3220 3221 3221 3221 3221 3221 3221 3220 3219 3218 3217 3216 3215 3214 3212 3210 3207 3205 3204 3202 3202 3201 3201 3202 3203 3204 3205 3205 3207 3208 3208
3205 3207 3208 3209 3210 3212 3213 3214 3215 3216 3217 3218 3219 3219 3219 3219 3219 3220 3219 3218 3217 3217 3216 3215 3213 3211 3209 3207 3205 3202 3201 3200 3199 3199 3198 3199 3199 3201 3202 3204 3205 3205 3207
3203 3204 3206 3207 3208 3210 3211 3212 3213 3214 3216 3216 3217 3217 3217 3217 3218 3218 3217 3216 3216 3215 3214 3212 3210 3208 3205 3202 3201 3199 3198 3197 3196 3195 3196 3196 3197 3198 3199 3200 3202 3203 3204
3200 3202 3203 3205 3206 3207 3209 3209 3210 3212 3213 3214 3214 3215 3216 3216 3216 3216 3215 3214 3214 3213 3211 3210 3207 3204 3202 3201 3198 3197 3196 3195 3194 3194 3193 3193 3194 3195 3196 3196 3197 3199 3201
3197 3199 3200 3202 3203 3204 3206 3207 3208 3209 3211 3212 3212 3213 3213 3212 3213 3212 3212 3212 3211 3210 3208 3206 3204 3201 3199 3198 3196 3194 3194 3193 3192 3191 3191 3191 3192 3193 3193 3194 3195 3196 3198
3194 3196 3197 3199 3201 3201 3203 3204 3205 3207 3207 3209 3210 3210 3210 3211 3211 3210 3209 3209 3208 3207 3205 3203 3201 3199 3197 3195 3194 3192 3191 3191 3190 3190 3189 3189 3190 3190 3190 3191 3191 3192 3193
3192 3193 3194 3196 3197 3199 3200 3202 3203 3203 3204 3205 3207 3207 3208 3208 3207 3207 3207 3207 3205 3204 3201 3199 3197 3196 3195 3194 3192 3191 3193 3190 3189 3187 3187 3188 3188 3187 3187 3187 3188 3189 3189
3189 3190 3192 3193 3194 3195 3197 3198 3200 3202 3203 3203 3204 3206 3206 3206 3207 3206 3205 3204 3203 3200 3198 3196 3194 3193 3192 3191 3191 3191 3191 3193 3188 3185 3184 3185 3185 3184 3184 3184 3184 3185 3185
3186 3187 3188 3189 3190 3192 3194 3195 3197 3199 3200 3201 3203 3205 3206 3206 3205 3205 3203 3202 3201 3199 3197 3195 3193 3191 3190 3189 3189 3189 3188 3187 3187 3190 3184 3181 3181 3181 3181 3181 3181 3181 3181
3181 3182 3184 3186 3187 3189 3191 3193 3195 3196 3198 3200 3202 3204 3205 3204 3204 3203 3202 3201 3200 3198 3196 3193 3192 3189 3188 3187 3187 3186 3186 3185 3185 3185 3184 3183 3178 3176 3177 3177 3178 3176 3176
3175 3178 3180 3183 3185 3186 3188 3190 3193 3195 3197 3199 3201 3203 3203 3203 3203 3203 3201 3201 3199 3197 3195 3193 3191 3189 3188 3186 3184 3183 3183 3183 3181 3181 3180 3179 3178 3175 3173 3173 3172 3171 3172